Regional Weather Roundup
Issued by NWS

Home | Current Version | Previous Version | Graphics & Text | Print | Product List | Glossary On
Versions: 1 2 3 4 5 6 7 8 9 10 11 12 13 14 15 16 17 18 19 20 21 22 23 24 25 26 27 28 29 30 31 32 33 34 35 36 37 38 39 40 41 42 43 44 45 46 47 48 49 50
065
ASUS44 KMEG 140510
RWRTN
TENNESSEE HOURLY STATE WEATHER ROUNDUP
NATIONAL WEATHER SERVICE MEMPHIS TN
1100 PM CST WED DEC 13 2017

TNZ002-004-019-021-049-052-054-088>092-140600-
WEST TENNESSEE

CITY           SKY/WX    TMP DP  RH WIND       PRES   REMARKS
MEMPHIS INTL   CLEAR     47  28  47 W7        29.85R
NWS MEMPHIS      N/A     43 N/A N/A MISG        N/A
JACKSON        CLEAR     47  28  47 W10       29.82R
DYERSBURG      CLEAR     45  28  51 W6        29.83R
SOMERVILLE     PTCLDY    46  28  49 SW8       29.82S
COVINGTON      MOCLDY    41  28  60 CALM      29.83S
UNION CITY     PTCLDY    41  27  56 SW5       29.80R
BOLIVAR        PTCLDY    46  27  46 SW8       29.83R
PARIS          MOCLDY    41  27  56 SW8       29.79R
HUNTINGDON     MOCLDY    45  27  49 CALM      29.79S
LEXINGTON      PTCLDY    45  27  49 SW6       29.81S
SELMER         CLEAR     43  27  52 SW6       29.82R
SAVANNAH       CLEAR     36  27  69 CALM      29.82S
$$

TNZ008-025-027-028-033-062-065-066-140600-
NORTH MIDDLE TENNESSEE

CITY           SKY/WX    TMP DP  RH WIND       PRES   REMARKS
NASHVILLE      CLEAR     50  23  34 SW9       29.78R
PORTLAND       PTCLDY    46  25  42 SW9G16    29.74R
CLARKSVILLE    CLEAR     45  24  43 W6        29.77R
SMYRNA         CLEAR     47  24  40 SW14      29.79R
COOKEVILLE     PTCLDY    36  23  60 S7        29.77S WCI  30
GALLATIN       CLOUDY    36  25  64 CALM      29.79R
CROSSVILLE     CLEAR     41  21  44 W15       29.76S
$$

TNZ061-075-076-078-094-096-097-140600-
SOUTH MIDDLE TENNESSEE

CITY           SKY/WX    TMP DP  RH WIND       PRES   REMARKS
FAYETTEVILLE   CLEAR     41  25  52 SW7       29.82R
TULLAHOMA      PTCLDY    41  23  48 SW9       29.80S
WINCHESTER     CLEAR     45  25  45 W9        29.81S
MCMINNVILLE    PTCLDY    41  23  48 SW6G13    29.78F
COLUMBIA       CLEAR     43  23  45 SW10      29.78S
SHELBYVILLE    CLEAR     39  23  52 SW7       29.80S WCI  34
$$

TNZ017-018-042-046-047-140600-
NORTHEAST TENNESSEE

CITY           SKY/WX    TMP DP  RH WIND       PRES   REMARKS
TRI CITIES     CLOUDY    43  17  35 SW20G28   29.71F
ELIZABETHTON   CLOUDY    37  19  48 W5        29.73F WCI  34
$$

TNZ012-013-036-069-073-074-140600-
CENTRAL EAST TENNESSEE

CITY           SKY/WX    TMP DP  RH WIND       PRES   REMARKS
KNOXVILLE      PTCLDY    42  23  46 SW20      29.77S
OAK RIDGE      PTCLDY    32  20  61 CALM      29.80S
DOWNTOWN KNOXV PTCLDY    43  19  39 W13       29.78F
GATLINBURG     CLOUDY    48  19  32 SW13G29   29.77S
MORRISTOWN     CLOUDY    43  18  36 SW15G23   29.74S
JACKSBORO      CLOUDY    41  19  42 SE7       29.77S
$$

TNZ083-085-099-140600-
SOUTHEAST TENNESSEE

CITY           SKY/WX    TMP DP  RH WIND       PRES   REMARKS
CHATTANOOGA    CLEAR     42  23  46 S8        29.83F
DAYTON         MOCLDY    34  25  69 CALM      29.80F
$$

SKY/WX REPORTED AS FAIR MEANS FEW OR NO CLOUDS BELOW
12 THOUSAND FEET.





USA.gov is the U.S. government's official web portal to all federal, state and local government web resources and services.